Weather History for KAEG - March, 2014

Change the Weather History Date:

Monday, March 10, 2014

  Actual Average Record
Temperature  
Mean Temperature 46 °F -  
Max Temperature 67 °F - - ()
Min Temperature 26 °F - - ()
Degree Days  
Heating Degree Days 19    
Moisture  
Dew Point 11 °F    
Average Humidity 31    
Maximum Humidity 63    
Minimum Humidity 10    
Precipitation  
Precipitation 0.00 in - - ()
Sea Level Pressure  
Sea Level Pressure 30.10 in    
Wind  
Wind Speed 5 mph (WSW)    
Max Wind Speed 14 mph    
Max Gust Speed -    
Visibility 10 miles    
Events      
T = Trace of Precipitation, MM = Missing Value Source: NWS Daily Summary

Daily Weather History Graph

Daily Weather History Graph

Search for Another Location

Airport or City:

Trip Planner

Search our weather history database for the weather conditions in past years. The results will help you decide how hot, cold, wet, or windy it might be!

Date:

Astronomy

Mar. 10, 2014 Rise Set
Actual Time 7:24 AM MDT 7:10 PM MDT
Civil Twilight 6:59 AM MDT 7:35 PM MDT
Nautical Twilight 6:30 AM MDT 8:05 PM MDT
Astronomical Twilight 6:00 AM MDT 8:34 PM MDT
Moon 2:05 PM MDT (3/10) 3:29 AM MDT (3/10)
Length of Visible Light 12h 36m
Length of Day
11h 46m
Waxing Gibbous, 70% of the Moon is Illuminated
Mar 10
Waxing Gibbous
Mar 16
Full
Mar 23
Last Quarter
Mar 30
New
Apr 7
First Quarter

Hourly Weather History & Observations

Time (MDT) Temp. Windchill Dew Point Humidity Pressure Visibility Wind Dir Wind Speed Gust Speed Precip Events Conditions
12:15 AM 34.2 °F 31.2 °F 2.8 °F 27% 30.23 in 10.0 mi WNW 3.5 mph - N/A   Clear
12:35 AM 34.7 °F 28.8 °F 3.6 °F 27% 30.24 in 10.0 mi West 6.9 mph - N/A   Clear
12:55 AM 34.7 °F 29.6 °F 8.6 °F 34% 30.24 in 10.0 mi NW 5.8 mph - N/A   Clear
1:15 AM 33.6 °F - 9.0 °F 36% 30.23 in 10.0 mi Calm Calm - N/A   Clear
1:35 AM 34.2 °F 30.0 °F 10.6 °F 38% 30.23 in 10.0 mi West 4.6 mph - N/A   Clear
1:55 AM 32.0 °F - 10.8 °F 41% 30.23 in 10.0 mi Calm Calm - N/A   Clear
2:15 AM 30.6 °F 27.1 °F 10.6 °F 43% 30.22 in 10.0 mi WNW 3.5 mph - N/A   Clear
2:35 AM 31.8 °F - 11.3 °F 43% 30.22 in 10.0 mi Calm Calm - N/A   Clear
2:55 AM 31.1 °F - 10.8 °F 43% 30.21 in 10.0 mi Calm Calm - N/A   Clear
3:15 AM 28.6 °F - 10.2 °F 46% 30.20 in 10.0 mi Calm Calm - N/A   Clear
3:35 AM 27.5 °F - 9.5 °F 47% 30.20 in 10.0 mi Calm Calm - N/A   Clear
3:55 AM 28.0 °F - 9.0 °F 45% 30.20 in 10.0 mi Calm Calm - N/A   Clear
4:15 AM 27.1 °F - 9.5 °F 48% 30.19 in 10.0 mi Calm Calm - N/A   Clear
4:35 AM 28.0 °F 22.8 °F 9.3 °F 45% 30.19 in 10.0 mi WSW 4.6 mph - N/A   Clear
5:50 AM 30.2 °F 22.6 °F 12.2 °F 47% 30.19 in 10.0 mi West 8.1 mph - N/A   Clear
6:50 AM 26.6 °F 18.2 °F 10.4 °F 51% 30.19 in 10.0 mi West 8.1 mph - N/A   Clear
7:50 AM 26.6 °F - 10.4 °F 51% 30.19 in 10.0 mi Calm Calm - N/A   Clear
8:50 AM 39.2 °F - 15.8 °F 39% 30.19 in 10.0 mi Calm Calm - N/A   Partly Cloudy
9:55 AM 48.2 °F - 15.8 °F 27% 30.19 in 10.0 mi Variable 4.6 mph - N/A   Partly Cloudy
10:50 AM 51.8 °F - 15.8 °F 24% 30.18 in 10.0 mi SE 6.9 mph - N/A   Partly Cloudy
11:50 AM 55.4 °F - 15.8 °F 21% 30.15 in 10.0 mi WSW 8.1 mph - N/A   Partly Cloudy
1:49 PM 60.8 °F - 48.2 °F 63% 30.08 in 10.0 mi Variable 6.9 mph - N/A   Clear
2:52 PM 62.6 °F - 14.0 °F 15% 30.04 in 10.0 mi Variable 6.9 mph - N/A   Clear
3:49 PM 64.4 °F - 14.0 °F 14% 30.00 in 10.0 mi Variable 6.9 mph - N/A   Clear
4:49 PM 66.2 °F - 12.2 °F 12% 29.99 in 10.0 mi South 4.6 mph - N/A   Scattered Clouds
5:52 PM 66.2 °F - 12.2 °F 12% 29.98 in 10.0 mi Calm Calm - N/A   Partly Cloudy
6:49 PM 64.4 °F - 5.0 °F 10% 29.98 in 10.0 mi NW 11.5 mph - N/A   Partly Cloudy
7:48 PM 55.4 °F - 12.2 °F 18% 29.98 in 10.0 mi Calm Calm - N/A   Clear
8:55 PM 44.6 °F 39.2 °F 10.4 °F 25% 29.97 in 10.0 mi SSW 10.4 mph - N/A   Clear
9:15 PM 43.7 °F 38.6 °F 9.7 °F 25% 29.96 in 10.0 mi WSW 9.2 mph - N/A   Clear
9:35 PM 46.2 °F 41.2 °F 8.6 °F 22% 29.96 in 10.0 mi WSW 10.4 mph - N/A   Clear
9:47 PM 46.4 °F 40.4 °F 8.6 °F 22% 29.96 in 10.0 mi WSW 13.8 mph - N/A   Clear
9:55 PM 46.9 °F - 8.2 °F 21% 29.96 in 10.0 mi WSW 12.7 mph - N/A   Clear
10:15 PM 47.3 °F - 7.7 °F 20% 29.96 in 10.0 mi West 13.8 mph - N/A   Clear
10:35 PM 45.5 °F 39.9 °F 6.8 °F 21% 29.96 in 10.0 mi West 11.5 mph - N/A   Clear
10:55 PM 43.7 °F 38.6 °F 6.1 °F 21% 29.96 in 10.0 mi WSW 9.2 mph - N/A   Clear
11:15 PM 40.6 °F 34.3 °F 5.9 °F 24% 29.96 in 10.0 mi West 10.4 mph - N/A   Clear
11:35 PM 38.8 °F 33.8 °F 6.1 °F 26% 29.94 in 10.0 mi West 6.9 mph - N/A   Clear
11:55 PM 37.2 °F 31.9 °F 5.4 °F 27% 29.95 in 10.0 mi West 6.9 mph - N/A   Clear